Location: ??????
(60.6407°N, 46.8689°E)
Time: 15:27:15
(UTC+00:00)

Daily predictions for brighter satellites

Satellite Brightness Start Highest point End
(mag) Time Altitude Azimuth Time Altitude Azimuth Time Altitude Azimuth
CENTAUR R/B 4.2 12:28:38 10° WNW 12:36:02 53° SW 12:44:13 10° SSE
COSMOS 2455 3.4 12:31:07 10° SSW 12:36:53 49° SE 12:42:40 10° NE
Radarsat Rocket 4.0 12:31:12 10° SE 12:37:05 64° ENE 12:42:51 10° NNW
Cosmos 1733 Rocket 3.9 12:35:09 10° N 12:38:57 28° ENE 12:42:45 10° ESE
ERS-2 3.6 12:37:56 10° N 12:41:15 33° WNW 12:44:32 10° WSW
Cosmos 1782 4.0 12:38:07 10° SE 12:41:19 24° E 12:44:31 10° NE
Cosmos 2333 Rocket 3.8 12:40:49 10° SE 12:44:34 18° E 12:48:20 10° ENE
Cosmos 1302 Rocket 4.0 12:40:22 10° NNW 12:45:43 83° NE 12:51:00 10° SE
Tsikada Rocket 4.2 12:40:57 10° S 12:47:12 58° E 12:53:26 10° NNE
Cosmos 1869 Rocket 3.6 12:43:39 10° N 12:48:04 67° ENE 12:52:29 10° SSE
Cosmos 1315 Rocket 4.2 12:45:42 10° SE 12:48:47 22° E 12:51:55 10° NE
SeaSat 1 3.5 12:46:52 10° ENE 12:50:56 26° NNE 12:55:00 10° NW
Meteor 1-11 Rocket 4.2 12:45:31 10° NNW 12:51:12 43° ENE 12:56:52 10° SE
H-2A R/B 4.5 12:47:49 10° SSW 12:51:58 35° W 12:56:07 10° NNW
Cosmos 1844 4.5 12:46:22 10° NW 12:52:00 59° WSW 12:57:32 10° SSE
Cosmos 2322 Rocket 2.4 12:46:44 10° SSW 12:52:16 62° ESE 12:57:53 10° NE
Helios 1A Rocket 2.9 12:49:03 10° SSE 12:53:07 67° ENE 12:57:12 10° NNW
Cosmos 1689 Rocket 3.6 12:51:46 10° NE 12:54:11 21° E 12:56:35 10° SE
Cosmos 1680 Rocket 4.2 12:50:25 10° WSW 12:55:34 49° NW 13:00:45 10° NNE
Cosmos 1400 Rocket 3.2 12:52:59 10° S 12:56:54 47° E 13:00:48 10° NNE
SL-08 R/B 3.5 12:52:35 10° NNE 12:57:36 89° ESE 13:02:30 10° SSW
Cosmos 1484 Rocket 3.3 12:55:21 10° S 12:59:21 66° WSW 13:03:23 10° NNW
SL-16 R/B 2.3 12:53:56 10° SSW 12:59:36 74° SE 13:05:17 10° NE
ASTEX 1 3.4 12:54:50 10° N 12:59:51 88° E 13:04:48 10° S
Cosmos 1844 Rocket 4.0 12:55:07 10° NW 13:00:26 46° WSW 13:05:44 10° S
Cosmos 1697 Rocket 3.4 12:55:58 10° WSW 13:01:24 46° NNW 13:06:52 10° NE
Meteor 1-31 Rocket 4.5 12:57:53 10° SSW 13:01:29 37° W 13:05:09 10° NNW
NOSS 2-2 (D) 4.2 12:59:07 10° SSW 13:02:42 40° SE 13:06:53 11° ENE
SAR-Lupe-4 3.7 12:59:58 10° NNE 13:03:35 79° WNW 13:07:11 10° SSW
Cosmos 2219 Rocket 3.5 12:59:25 10° SSE 13:03:39 22° ESE 13:07:41 11° NE
CORIOLIS 4.5 12:58:55 10° SE 13:04:04 45° ENE 13:09:14 10° NNW
SL-16 R/B 3.1 12:59:42 10° NNE 13:05:43 56° WNW 13:11:44 10° SW
Cosmos 921 Rocket 4.0 13:02:16 10° NNW 13:05:51 26° NE 13:09:28 10° E
NOSS 5 (C) 4.2 13:03:25 10° WNW 13:06:25 86° SSW 13:09:46 10° ESE
Meteor 1-14 Rocket 4.5 13:01:44 10° NNW 13:07:45 83° WSW 13:13:36 10° S
Cosmos 2344 4.0 13:00:30 10° W 13:08:28 76° N 13:18:52 10° E
Cosmos 1328 Rocket 3.9 13:06:30 10° SSW 13:10:48 64° WNW 13:15:07 10° N
Cosmos 1943 Rocket 2.9 13:05:45 10° NW 13:10:57 35° NNE 13:16:07 10° E
CZ-2C R/B 4.4 13:06:53 10° SSW 13:11:10 30° W 13:15:23 10° NNW
Cosmos 1812 4.4 13:09:11 10° ESE 13:11:27 15° E 13:12:53 13° ENE
NOSS 3-1 (C) 3.8 13:06:29 10° W 13:12:54 71° N 13:20:34 10° E
NOSS 2-3 (E) 4.3 13:08:50 10° W 13:13:56 71° N 13:20:12 11° ENE
Meteor 1-26 Rocket 4.3 13:08:37 10° S 13:14:18 61° E 13:19:51 10° NNE
Elektron 3 3.9 13:12:51 10° W 13:15:43 86° N 13:19:43 10° E
Cosmos 2297 3.9 13:11:37 10° NW 13:17:15 52° NE 13:22:49 10° ESE
ATLAS 3B R/B 4.3 13:11:55 10° WNW 13:18:00 39° SW 13:24:12 10° SSE
Cosmos 1340 2.9 13:15:04 10° NNW 13:18:51 73° WSW 13:22:38 10° S
IRS-1C Rocket 4.1 13:14:28 10° SE 13:19:42 65° ENE 13:24:56 10° NNW
Cosmos 1933 3.4 13:16:01 10° SSW 13:20:02 81° WNW 13:24:06 10° NNE
Cosmos 1500 3.5 13:17:08 10° N 13:20:48 43° ENE 13:24:25 10° SE
USA 229 DEB 3.8 13:14:08 10° W 13:21:02 71° N 13:28:21 10° E
USA 229 3.8 13:14:14 10° W 13:21:08 71° N 13:28:26 10° E
Cosmos 1900 4.5 13:16:21 10° NW 13:21:17 79° SW 13:26:10 10° SE
Cosmos 2279 Rocket 4.0 13:15:12 10° NNW 13:21:31 79° ENE 13:27:47 10° SSE
H-2A R/B 3.7 13:23:14 12° NE 13:24:05 13° NNE 13:26:13 10° N
Envisat 3.4 13:19:59 10° SE 13:24:44 41° ENE 13:29:30 10° N
NOSS 2-3 (D) 4.3 13:19:37 10° W 13:24:45 70° N 13:30:34 13° ENE
RESURS DK-1 4.1 13:22:29 10° SSE 13:25:11 17° ESE 13:26:48 14° E
Cosmos 2237 4.5 13:19:51 10° SSW 13:25:27 57° ESE 13:30:26 13° NE
Okean O Rocket 2.0 13:21:32 10° S 13:25:53 69° WSW 13:30:15 10° NNW
NOSS 3-1 (A) 3.8 13:19:53 10° W 13:26:15 71° N 13:33:15 12° E
Feng Yun 1-1 Rocket 4.1 13:21:29 10° SE 13:26:50 68° ENE 13:32:15 10° NNW
Cosmos 1602 4.1 13:23:45 10° NNW 13:27:37 68° W 13:31:28 10° S
Cosmos 1939 Rocket 4.4 13:28:01 16° NE 13:28:24 16° NE 13:30:49 10° N
Cosmos 1634 Rocket 4.3 13:22:30 10° NNW 13:28:40 70° W 13:34:48 10° S
Cosmos 1992 Rocket 3.9 13:23:52 10° NNW 13:29:08 79° NE 13:34:23 10° SE
SMAP 3.0 13:24:32 10° SE 13:29:09 63° ENE 13:33:47 10° NNW
CSL-04 Rocket 4.3 13:24:37 10° ESE 13:29:12 31° NE 13:33:49 10° N
NOSS 3-4 (A) 4.2 13:23:50 10° SSW 13:29:25 39° SE 13:34:17 15° ENE
NOSS 3-4 (C) 4.2 13:23:57 10° SSW 13:29:32 39° SE 13:34:23 15° ENE
YAOGAN 6 3.6 13:26:51 10° ESE 13:29:46 24° ENE 13:32:43 10° N
Cosmos 1867 3.6 13:26:54 10° WNW 13:32:24 69° NNE 13:37:52 10° ESE
ISS -0.7 13:31:06 10° SW 13:32:38 13° SSW 13:34:10 10° S
Meteor 1-5 Rocket 4.1 13:28:06 10° NNW 13:33:48 77° ENE 13:39:16 10° SSE
Cosmos 2228 Rocket 3.2 13:30:02 10° SSW 13:34:39 83° WNW 13:39:17 10° NNE
OPS 8737 4.1 13:32:46 10° WSW 13:35:52 73° NNW 13:37:38 22° ENE
Cosmos 1441 Rocket 4.1 13:33:06 10° N 13:36:29 27° ENE 13:39:47 10° ESE
Cosmos 1151 Rocket 4.1 13:32:18 10° SW 13:36:31 44° WNW 13:40:44 10° N
COSMOS 2428 3.5 13:31:35 10° S 13:36:37 33° ESE 13:40:20 16° ENE
ALOS 3.3 13:33:30 10° S 13:38:03 50° W 13:42:37 10° NNW
Cosmos 1515 Rocket 4.2 13:35:15 10° SSW 13:39:30 55° WNW 13:43:49 10° N
NOSS 2-2 (C) 3.7 13:36:23 10° SW 13:40:11 63° SE 13:43:29 19° ENE
Cosmos 1536 3.0 13:36:42 10° N 13:40:38 46° ENE 13:44:32 10° SE
Cosmos 1707 Rocket 3.8 13:36:43 10° S 13:41:02 49° E 13:45:22 10° NNE
Okean-O 2.8 13:37:34 10° SE 13:41:52 51° ENE 13:46:12 10° NNW
H-2A R/B 2.6 13:38:36 10° SSE 13:42:15 65° ENE 13:45:56 10° NNW
NOSS 8 (F) 4.2 13:41:28 10° WSW 13:44:33 77° SSE 13:46:29 23° ENE
Cosmos 292 Rocket 3.7 13:40:23 10° NNW 13:45:17 68° NE 13:50:08 10° SE
CZ-4B R/B 1.6 13:44:02 10° NNE 13:47:34 75° WNW 13:51:05 10° SSW
Meteor 1-28 Rocket 3.6 13:44:46 10° NNE 13:48:30 65° WNW 13:52:13 10° SSW
Nadezhda 4 Rocket 4.4 13:44:49 10° SSE 13:50:38 40° E 13:56:27 10° NNE
Cosmos 1908 Rocket 3.8 13:47:53 10° N 13:52:12 47° ENE 13:56:26 10° SE
Lacrosse 4 Rocket 2.5 13:49:14 10° WNW 13:52:53 29° N 13:54:43 21° NE
Cosmos 2333 4.5 13:48:04 10° SSW 13:53:38 53° ESE 13:57:42 19° NE
CZ-4B R/B 4.3 13:49:39 10° S 13:54:49 47° W 14:00:06 10° NNW
COSMO-SKYMED 1 4.2 13:56:59 17° ESE 13:56:59 17° ESE 13:59:00 10° SE
AQUARIUS 4.1 13:53:01 10° SSE 13:57:31 89° E 14:02:05 10° NNW
Cosmos 2322 3.8 13:53:19 10° SSW 13:58:57 63° ESE 14:02:58 19° NE
Lacrosse 5 rocket 3.3 13:56:43 10° S 13:58:58 14° SE 14:00:06 13° ESE
Cosmos 2278 Rocket 2.9 13:53:25 10° NW 13:59:00 58° WSW 14:04:33 10° SSE
Genesis I 3.5 13:55:12 10° WNW 13:59:09 69° SW 14:03:00 10° SE
YAOGAN 3 4.5 13:56:23 10° SSE 14:00:43 68° ENE 14:05:05 10° NNW
PSLV R/B 4.1 13:58:29 16° NNE 14:01:37 51° E 14:05:40 10° S
NOSS 2-2 (E) 3.6 13:58:02 10° WSW 14:02:03 83° SSE 14:04:57 24° ENE
FengYun 1-2 T 4.2 13:56:44 10° SE 14:02:06 58° ENE 14:07:32 10° NNW
NOSS 2-3 (C) 4.4 13:56:48 10° W 14:02:08 68° N 14:06:44 21° E
CZ-4 R/B 1.7 13:59:17 10° SE 14:02:54 39° ENE 14:06:32 10° N
H-2A R/B 3.8 14:00:59 10° N 14:04:28 27° NW 14:07:55 10° WSW
Cosmos 494 Rocket 4.0 13:59:58 10° SSW 14:05:15 83° ESE 14:09:15 18° NE
Cosmos 1666 2.7 14:01:40 10° N 14:05:23 52° ENE 14:09:04 10° SSE
SL-4 R/B 4.0 14:03:48 10° SSW 14:06:11 16° SSE 14:07:56 13° SE
ATLAS 2AS CENTAUR R/B 3.1 13:59:01 10° SW 14:07:01 69° SE 14:12:31 22° ENE
Ariane Rocket 3.8 14:05:55 22° E 14:08:02 30° NE 14:12:24 10° N
Meteor 2-6 Rocket 4.1 14:03:57 10° S 14:09:18 69° ESE 14:14:46 10° NNE
Cosmos 1606 4.2 14:05:57 10° SW 14:09:28 35° WNW 14:13:02 10° N
Cosmos 2360 Rocket 2.2 14:04:50 10° SW 14:10:33 86° NW 14:14:37 20° NE
YAOGAN 1 2.9 14:07:54 10° SE 14:12:00 42° ENE 14:16:07 10° N
Cosmos 2369 Rocket 2.5 14:07:34 10° NW 14:13:02 47° NNE 14:16:15 23° E
CZ-2D R/B 4.3 14:17:07 27° NE 14:17:07 27° NE 14:19:37 10° N
Cosmos 1733 Rocket 3.6 14:12:47 10° NNW 14:17:07 61° W 14:21:27 10° S
Cosmos 1782 3.3 14:13:24 10° SSW 14:17:21 59° WNW 14:21:10 11° N
Cosmos 1980 Rocket 3.2 14:12:07 10° W 14:17:24 36° NNW 14:20:54 19° NE
Cosmos 1269 Rocket 4.0 14:16:31 10° SSW 14:21:51 89° ESE 14:25:30 21° NNE
Cosmos 1763 Rocket 4.3 14:17:35 10° NNW 14:22:02 29° NNE 14:22:55 28° NE
SL-16 R/B 4.0 14:18:43 10° SE 14:20:11 14° ESE 14:20:11 14° ESE
COSMOS 2455 3.0 14:16:43 10° WSW 14:22:44 70° NNW 14:26:24 25° NE
Cosmos 1315 Rocket 3.1 14:20:58 10° SSW 14:24:59 68° WNW 14:28:14 16° NNE
Cosmos 1689 Rocket 3.2 14:23:47 18° N 14:25:47 44° WNW 14:28:41 10° SW
Cosmos 1743 3.0 14:23:53 10° N 14:27:37 44° ENE 14:27:57 43° E
SeaSat 1 2.7 14:25:38 29° E 14:27:45 48° NE 14:32:31 10° NW
Cosmos 2333 Rocket 2.3 14:22:11 10° SSW 14:27:51 63° ESE 14:30:56 28° NE
Meteor 1-10 Rocket 4.1 14:22:28 10° S 14:28:02 81° ESE 14:33:42 10° NNE
NOAA 12 4.3 14:22:44 10° SSE 14:28:03 77° WSW 14:33:22 10° NNW
Cosmos 1975 3.9 14:27:08 10° N 14:29:29 27° NNE 14:29:29 27° NNE
Exosat Rocket 3.9 14:26:20 10° S 14:31:05 43° ESE 14:32:37 34° ENE
USA 215 3.7 14:27:46 25° E 14:31:24 48° SSE 14:37:41 10° SW
Cosmos 2237 Rocket 2.8 14:27:36 10° S 14:32:44 36° ESE 14:34:00 32° E
NOSS 8 (E) 4.4 14:32:12 10° W 14:35:18 68° NNW 14:35:49 56° NE
Cosmos 2322 Rocket 2.8 14:31:05 10° WSW 14:36:34 49° NW 14:39:59 22° NNE
NOSS 0 Rocket 4.2 14:33:57 10° S 14:39:51 46° ESE 14:42:03 33° ENE
CZ-4 R/B 4.3 14:36:32 10° SSE 14:40:43 84° ENE 14:44:55 10° NNW
Cosmos 1656 Rocket 4.1 14:37:31 10° NW 14:42:41 41° NNE 14:43:51 37° ENE
Sich 1 Rocket 3.5 14:38:41 10° N 14:43:06 60° ENE 14:47:27 10° SSE
SL-16 R/B 3.0 14:38:40 10° WSW 14:44:07 45° NNW 14:47:17 23° NNE
SKYMED 2 4.4 14:45:40 33° SE 14:45:40 33° SE 14:48:42 10° SSE
Cosmos 921 Rocket 2.9 14:40:24 10° NNW 14:44:40 83° WSW 14:48:58 10° SSE
Okean 2 Rocket 3.5 14:41:55 10° N 14:45:39 42° NE 14:45:39 42° NE
Cosmos 1697 Rocket 3.9 14:41:43 10° WNW 14:46:38 30° N 14:48:41 24° NNE
Cosmos 1812 2.6 14:42:47 10° SSW 14:46:41 88° E 14:48:00 40° NNE
Cosmos 1782 Rocket 3.4 14:42:23 10° NNW 14:46:48 78° ENE 14:51:09 10° SSE
Cosmos 2219 Rocket 2.1 14:41:13 10° SSW 14:46:51 77° SE 14:49:24 34° NE
Meteor 1-27 Rocket 3.7 14:41:25 10° S 14:47:12 75° ESE 14:52:28 13° NNE
Cosmos 841 Rocket 4.4 14:43:17 10° NNW 14:47:52 30° NNE 14:47:55 30° NNE
Cosmos 2251 Rocket 3.6 14:43:02 10° SSW 14:48:13 57° ESE 14:49:49 41° ENE
SL-16 R/B 4.4 14:43:44 10° NNE 14:48:20 23° NW 14:52:56 10° W
NOSS 2-2 (D) 3.6 14:48:59 10° WSW 14:53:03 76° NNW 14:54:16 49° NE
Cosmos 1943 Rocket 2.1 14:49:50 10° NW 14:55:33 74° NE 14:58:04 34° ESE
Cosmos 1092 Rocket 3.9 14:50:46 10° S 14:56:59 66° E 15:03:11 10° NNE
Cosmos 2297 4.3 14:55:59 10° NW 15:01:37 59° WSW 15:07:11 10° SSE
H-2A R/B 3.1 15:03:52 28° NNE 15:03:52 28° NNE 15:06:48 10° N
RESURS DK-1 2.2 14:58:28 10° SW 15:02:35 75° SE 15:02:42 75° ESE
Cosmos 1939 Rocket 3.5 15:03:55 42° N 15:03:55 42° N 15:06:40 10° NNW
Cosmos 1862 Rocket 3.7 14:58:37 10° SSW 15:03:00 75° WNW 15:05:16 28° N
YAOGAN 6 3.2 14:59:32 10° S 15:03:03 57° W 15:06:38 10° NNW
Cosmos 1980 3.8 14:57:51 10° SSW 15:03:21 54° ESE 15:04:15 48° E
Envisat 3.8 14:58:46 10° S 15:03:44 52° W 15:08:44 10° NNW
NOSS 3-1 (C) 3.8 14:57:26 10° WNW 15:04:16 89° SSW 15:08:22 32° ESE
NOSS 2-3 (E) 4.4 14:59:36 10° WNW 15:05:13 77° NNE 15:07:38 42° E
Cosmos 1703 Rocket 4.0 15:01:27 10° S 15:04:55 46° SE 15:04:55 46° SE
Cosmos 2263 4.2 15:01:30 10° NW 15:07:17 65° NE 15:08:42 49° E
Cosmos 468 Rocket 4.1 15:03:13 10° NNW 15:08:13 50° NE 15:08:13 50° NE
SPOT 3 Rocket 4.5 15:10:09 31° NNE 15:10:09 31° NNE 15:13:31 10° N
CSL-04 Rocket 3.7 15:03:52 10° SSE 15:09:10 79° WSW 15:14:32 10° NNW
Cosmos 2242 Rocket 3.5 15:04:57 10° SSW 15:09:32 88° ESE 15:10:57 45° NNE
COBE Rocket 4.0 15:08:25 21° N 15:11:30 67° WNW 15:16:08 10° SSW
USA 229 DEB 3.8 15:05:20 10° WNW 15:12:23 85° SSW 15:15:51 35° ESE
USA 229 3.8 15:05:26 10° WNW 15:12:30 85° SSW 15:15:55 35° ESE
Cosmos 1441 Rocket 4.0 15:08:53 10° NNW 15:12:40 52° W 15:16:23 10° S
NOSS 2-3 (D) 4.4 15:10:23 10° WNW 15:16:01 79° NNE 15:18:00 48° E
Cosmos 1867 4.2 15:10:40 10° WNW 15:16:02 55° SW 15:19:11 24° SSE
NOSS 3-1 (A) 3.8 15:10:55 10° WNW 15:17:43 86° NNE 15:20:43 42° ESE
Okean-O 4.3 15:14:32 10° SSW 15:18:34 33° W 15:22:38 10° NNW
CZ-4B R/B 4.3 15:17:17 10° NNW 15:19:23 15° NW 15:21:28 10° W
NOSS 3-4 (A) 3.4 15:13:36 10° WSW 15:19:49 88° SSE 15:21:44 50° ENE
NOSS 3-4 (C) 3.4 15:13:42 10° WSW 15:19:55 87° SSE 15:21:50 50° ENE
S3M 3.8 15:13:39 10° NNW 15:19:58 73° ENE 15:25:57 11° SSE
COSMOS 2428 2.7 15:14:47 10° SW 15:20:30 79° NW 15:22:21 45° NNE
Cosmos 540 Rocket 4.4 15:16:54 10° NNW 15:20:36 32° NNE 15:20:36 32° NNE
Cosmos 1570 Rocket 4.5 15:17:02 10° NNW 15:21:29 44° NNE 15:21:29 44° NNE
Cosmos 2344 4.1 15:15:00 10° WNW 15:23:34 86° SSW 15:30:00 30° ESE
NOSS 2-2 (C) 3.8 15:26:42 10° W 15:30:52 66° N 15:30:53 66° N
Meteor 2-9 Rocket 4.2 15:25:57 10° NNW 15:31:53 89° WSW 15:36:23 18° SSE
Lacrosse 4 Rocket 2.6 15:28:22 10° NW 15:31:01 33° NNW 15:31:01 33° NNW
COSMO-SKYMED 1 3.3 15:34:12 44° SSW 15:34:12 44° SSW 15:37:11 10° SSW
Resurs 01 Rocket 4.2 15:36:32 11° N 15:36:32 11° N 15:36:38 10° N
Cosmos 1553 Rocket 4.0 15:27:18 10° NNW 15:33:40 82° W 15:40:04 10° S
Nadezhda 4 Rocket 4.5 15:29:30 10° SSW 15:35:47 61° WNW 15:42:03 10° N
ARGOS 3.9 15:37:37 37° N 15:37:37 37° N 15:41:08 10° NNW
Lacrosse 5 rocket 3.0 15:33:33 10° SW 15:35:45 25° SSW 15:35:45 25° SSW
CZ-4 R/B 2.8 15:34:25 10° SSW 15:38:01 35° W 15:41:37 10° NNW
Cosmos 1428 Rocket 4.3 15:34:06 10° S 15:40:17 80° E 15:43:51 28° NNE
Cosmos 2322 4.4 15:37:49 10° WSW 15:43:23 50° NW 15:44:54 40° N
SL-4 R/B 4.1 15:41:42 10° SW 15:43:33 20° SSW 15:43:33 20° SSW
Ariane Rocket 3.0 15:46:07 69° SSW 15:46:39 78° WSW 15:51:45 10° NNW
YAOGAN 1 3.9 15:44:06 10° SSW 15:48:11 39° W 15:52:17 10° NNW
Meteor 1-12 Rocket 4.2 15:44:31 10° NNW 15:50:31 88° WSW 15:51:29 64° SSE
NOSS 2-2 (E) 4.2 15:48:32 10° W 15:52:19 59° NW 15:52:19 59° NW
NOSS 2-3 (C) 4.5 15:47:29 10° WNW 15:53:20 88° SSW 15:54:10 71° ESE
Cosmos 2360 Rocket 3.2 15:49:57 10° W 15:55:14 38° NNW 15:56:23 35° N
Cosmos 2315 Rocket 4.1 15:49:19 10° NNW 15:54:54 62° NNE 15:54:54 62° NNE
Cosmos 2369 Rocket 2.4 15:51:46 10° NW 15:57:21 66° WSW 15:58:05 60° SSW
Cosmos 2026 Rocket 3.9 15:51:49 10° SSW 15:57:53 78° WNW 16:01:28 26° N
ATLAS 2AS CENTAUR R/B 3.0 15:50:08 10° W 15:58:14 76° NNW 15:59:57 58° NE
Cosmos 1980 Rocket 3.5 15:57:52 10° NW 16:02:40 30° N 16:02:40 30° N
Cosmos 1763 Rocket 4.2 15:59:27 10° NNW 16:02:58 45° NNW 16:02:58 45° NNW
SL-16 R/B 3.6 15:59:32 10° SSW 16:02:06 27° S 16:02:06 27° S
SeaSat 1 2.9 16:05:25 58° WSW 16:05:25 58° WSW 16:10:11 10° NW
COSMOS 2455 3.4 16:03:39 10° W 16:09:28 47° N 16:09:32 47° N
Cosmos 2333 Rocket 2.8 16:06:46 10° WSW 16:12:24 50° NNW 16:12:56 49° NNW
Cosmos 883 Rocket 4.4 16:07:15 10° NNW 16:13:39 85° W 16:13:39 85° W
USA 215 3.3 16:15:07 66° S 16:15:07 66° S 16:21:36 10° WSW
MOS 1 4.4 16:15:17 70° WSW 16:15:18 70° WSW 16:21:02 10° NNW
Cosmos 2237 Rocket 2.5 16:10:48 10° SW 16:15:51 66° W 16:15:51 66° W
Cosmos 2322 Rocket 3.5 16:16:51 10° WNW 16:21:47 30° N 16:21:47 30° N
NOSS 0 Rocket 4.1 16:19:58 10° WSW 16:26:04 67° NW 16:26:04 67° NW
Cosmos 1656 Rocket 4.3 16:21:15 10° NW 16:25:14 49° NW 16:25:14 49° NW
SL-16 R/B 3.6 16:24:34 10° WNW 16:29:08 29° NNW 16:29:08 29° NNW
Cosmos 2219 Rocket 3.1 16:25:53 10° WSW 16:31:08 43° NNW 16:31:08 43° NNW
Cosmos 1697 Rocket 4.1 16:26:55 10° NW 16:30:24 29° NNW 16:30:24 29° NNW
Exosat Rocket 4.5 16:27:41 10° WSW 16:31:43 44° WNW 16:31:43 44° WNW
Cosmos 1943 Rocket 3.4 16:33:54 10° NW 16:39:00 36° WSW 16:39:37 35° SW
H-2A R/B 3.8 16:44:30 25° NNW 16:44:30 25° NNW 16:46:34 10° NNW
COSMOS 2428 4.2 17:00:17 10° W 17:04:21 33° NW 17:04:21 33° NW
NOSS 3-1 (A) 4.5 17:01:44 10° WNW 17:08:11 51° SW 17:08:11 51° SW
NOSS 3-4 (A) 4.4 17:04:43 10° W 17:09:10 47° WNW 17:09:10 47° WNW
NOSS 3-4 (C) 4.4 17:04:49 10° W 17:09:16 47° WNW 17:09:16 47° WNW
Cosmos 2369 Rocket 4.5 17:36:41 10° WNW 17:39:53 18° W 17:39:53 18° W
Cosmos 2360 Rocket 4.3 17:35:42 10° WNW 17:38:09 21° NW 17:38:09 21° NW
Cosmos 1980 Rocket 4.5 17:42:41 10° NW 17:44:25 19° NNW 17:44:25 19° NNW
ATLAS 2AS CENTAUR R/B 3.8 17:41:51 10° WNW 17:47:23 47° WNW 17:47:23 47° WNW
Cosmos 2333 Rocket 4.5 17:52:46 10° WNW 17:54:57 20° NW 17:54:57 20° NW
